Regional Weather Roundup
Issued by NWS

Home | Current Version | Previous Version | Text Only | Print | Product List | Glossary Off
Versions: 1 2 3 4 5 6 7 8 9 10 11 12 13 14 15 16 17 18 19 20 21 22 23 24 25 26 27

000
ASUS45 KBOU 161406
RWRCO

WEATHER ROUNDUP FOR COLORADO
NATIONAL WEATHER SERVICE DENVER/BOULDER CO
800 AM MDT WED APR 16 2014

NOTE: "FAIR" INDICATES FEW OR NO CLOUDS BELOW 12000 FEET WITH NO
SIGNIFICANT WEATHER AND/OR OBSTRUCTIONS TO VISIBILITY.

COZ001>005-013-030-031-161500-
...NORTHWEST COLORADO...

CITY           SKY/WX    TMP DP  RH WIND       PRES   REMARKS
CRAIG          CLOUDY    35  22  58 W3        29.98R
HAYDEN         CLOUDY    34  21  60 NW3       30.00R
MEEKER         CLOUDY    39  22  50 E3        29.99R
MOUNT WERNER   NOT AVBL
STEAMBOAT SPGS CLOUDY    33  19  58 SW6       29.97R WCI  27
WALDEN         MOSUNNY   30  14  51 W14       29.94R WCI  20
$$

COZ006>008-011-161500-
...WEST CENTRAL VALLEYS...

CITY           SKY/WX    TMP DP  RH WIND       PRES   REMARKS
GRAND JUNCTION CLOUDY    46  21  37 CALM      29.92R
MONTROSE       CLOUDY    41  28  60 S5        29.95R
EAGLE          PTSUNNY   39  23  52 CALM      29.99R
RIFLE          CLOUDY    43  17  35 NW7       29.97R
DELTA          CLOUDY    43  28  55 NE3       29.92R
NUCLA            N/A     37  21  52 CALM      29.95R
$$

COZ017>023-064>068-161500-
...SOUTHWEST COLORADO...

CITY           SKY/WX    TMP DP  RH WIND       PRES   REMARKS
DURANGO        SUNNY     33   9  36 NE5       29.92R WCI  29
CORTEZ         SUNNY     36  18  48 E5        29.92R
PAGOSA SPRINGS SUNNY     35   9  33 CALM      29.95R
TELLURIDE      CLOUDY    37  12  35 CALM      29.99R
WOLF CREEK PAS SUNNY     28   0  29 SW13G20   30.04R WCI  18
$$

COZ009-010-012-014-032>034-037-058>063-161500-
...CENTRAL COLORADO...

CITY           SKY/WX    TMP DP  RH WIND       PRES   REMARKS
ASPEN          CLOUDY    38  17  42 S5        29.95R
BUENA VISTA    PTSUNNY   45  10  24 NW15G25   29.88R
COPPER MTN     LGT SNOW  19  14  79 W18       29.97R WCI   4
BERTHOUD PASS  FAIR      10   1  67 W24G33    29.93R WCI -10
COTTONWOOD PAS CLOUDY    39   5  24 NW12G38   29.91S
GUNNISON       PTSUNNY   32  19  59 CALM      29.95R
KREMMLING      CLOUDY    34  19  55 W9        29.99R WCI  26
LEADVILLE      FLURRIES  26  17  68 N6        29.95R WCI  19
MONARCH PASS   CLOUDY    27  10  50 W35G40    30.08S WCI   9
SALIDA         PTSUNNY   48  14  25 NE5       29.93R
SUNLIGHT       CLOUDY    27  14  59 CALM      30.02R
WILKERSON PASS MOSUNNY   27  18  69 W12G17    29.96R WCI  16
$$

COZ069>075-161500-
...SAN LUIS VALLEY/SANGRE DE CRISTO MOUNTAINS...

CITY           SKY/WX    TMP DP  RH WIND       PRES   REMARKS
ALAMOSA        SUNNY     34  12  40 CALM      29.91R
LA VETA PASS   SUNNY     32   5  32 W5        29.96R WCI  27
SAGUACHE       MOSUNNY   36  10  35 S6        29.92R
$$

COZ035-036-038>040-161500-
...NORTHERN COLORADO FRONT RANGE...

CITY           SKY/WX    TMP DP  RH WIND       PRES   REMARKS
DENVER INTL AP PTSUNNY   42  27  55 N8        29.86R
DMNS CITY PARK   N/A     46  18  32 NE9       29.85R
AURORA         MOSUNNY   41  28  60 NE8       29.87R
FRONT RANGE AP PTSUNNY   43  30  61 N9        29.87
ERIE MUNI ARPT MOSUNNY   49  15  25 NW16G26   29.86R
BOULDER MUN AP MOSUNNY   46  14  27 W12       29.85R
CENTENNIAL     PTSUNNY   46  14  27 NW18G26   29.85R
BROOMFIELD     PTSUNNY   46  14  27 NW21      29.86R
FORT COLLINS   SUNNY     43  27  52 N18       29.90R
LONGMONT       SUNNY     48  24  39 NE5       29.87R
$$

COZ041-046-047-076>085-087-088-161500-
...PIKES PEAK/PALMER DIVIDE AND SOUTHERN FOOTHILLS...

CITY           SKY/WX    TMP DP  RH WIND       PRES   REMARKS
COLO. SPRINGS  MOSUNNY   44  24  45 N24       29.84R
A. F. ACADEMY  SUNNY     40  25  54 N16       29.85R
ELLICOTT       NOT AVBL
FALCON         MOSUNNY   39  20  47 N18G24    29.86S
FORT CARSON    SUNNY     46  27  47 N15       29.83R
LIMON          SUNNY     40  28  62 N15       29.87R
MONUMENT HILL  MOSUNNY   37  21  52 N10       29.86R
TRINIDAD       MOSUNNY   47  18  31 NW10      29.83R
$$

COZ042>045-048>051-090-091-161500-
...NORTHEAST COLORADO...

CITY           SKY/WX    TMP DP  RH WIND       PRES   REMARKS
GREELEY ARPT   SUNNY     45  25  45 N22G29    29.88R
AKRON          SUNNY     41  31  67 N25G32    29.84R
BURLINGTON     SUNNY     45  31  58 NW22G36   29.81R
WRAY           MOSUNNY   45  35  66 NW18G29   29.81R
STERLING       SUNNY     46  34  61 N26G33    29.82R
HOLYOKE        MOSUNNY   46  34  61 NW21G32   29.78R
FORT MORGAN    SUNNY     43  29  59 NW17G23   29.85R
$$

COZ086-089-092>099-161500-
...SOUTHEAST COLORADO...

CITY           SKY/WX    TMP DP  RH WIND       PRES   REMARKS
PUEBLO         MOSUNNY   46  31  55 VRB5      29.82R
LA JUNTA       MOSUNNY   50  29  44 NE12      29.83R
LAMAR          MOSUNNY   49  28  44 N8        29.80R
SPRINGFIELD      N/A     50  27  40 N23       29.80
$$



USA.gov is the U.S. government's official web portal to all federal, state and local government web resources and services.